Time,TemperatureF,DewpointF,PressureIn,WindDirection,WindDirectionDegrees,WindSpeedMPH,WindSpeedGustMPH,Humidity,HourlyPrecipIn,Conditions,Clouds,dailyrainin,SoftwareType,DateUTC
2013-04-19 00:01:00,59.9,57.6,30.00,ENE,78,1.0,3.0,92,0.00,,,0.00,WeatherCatV1.02B3,2013-04-19 04:01:00,
2013-04-19 00:06:00,59.9,57.6,29.99,ENE,78,0.0,1.0,92,0.00,,,0.00,WeatherCatV1.02B3,2013-04-19 04:06:00,
2013-04-19 00:11:00,59.9,57.6,29.99,SSW,200,0.0,1.0,92,0.00,,,0.00,WeatherCatV1.02B3,2013-04-19 04:11:00,
2013-04-19 00:16:00,59.8,57.5,29.99,WSW,250,2.0,4.0,92,0.00,,,0.00,WeatherCatV1.02B3,2013-04-19 04:16:00,
2013-04-19 00:21:00,59.8,57.8,29.99,South,174,1.0,7.0,93,0.00,,,0.00,WeatherCatV1.02B3,2013-04-19 04:21:00,
2013-04-19 00:26:00,59.7,57.7,29.98,NW,318,1.0,4.0,93,0.00,,,0.00,WeatherCatV1.02B3,2013-04-19 04:26:00,
2013-04-19 00:31:00,59.6,57.6,29.98,NNW,340,0.0,4.0,93,0.00,,,0.00,WeatherCatV1.02B3,2013-04-19 04:31:00,
2013-04-19 00:36:00,59.5,57.5,29.98,ENE,78,0.0,10.0,93,0.00,,,0.00,WeatherCatV1.02B3,2013-04-19 04:36:00,
2013-04-19 00:41:00,59.3,57.6,29.98,NNE,29,1.0,5.0,94,0.00,,,0.00,WeatherCatV1.02B3,2013-04-19 04:41:00,
2013-04-19 00:46:00,59.1,57.4,29.98,NNE,19,0.0,3.0,94,0.00,,,0.00,WeatherCatV1.02B3,2013-04-19 04:46:00,
2013-04-19 00:51:00,59.0,57.3,29.97,NE,56,0.0,9.0,94,0.00,,,0.00,WeatherCatV1.02B3,2013-04-19 04:51:00,
2013-04-19 00:56:00,59.0,57.3,29.97,WSW,258,0.0,7.0,94,0.00,,,0.00,WeatherCatV1.02B3,2013-04-19 04:56:00,
2013-04-19 01:01:00,59.0,57.3,29.97,North,355,1.0,8.0,94,0.00,,,0.00,WeatherCatV1.02B3,2013-04-19 05:01:00,
2013-04-19 01:06:00,59.0,57.6,29.97,WNW,284,2.0,12.0,95,0.00,,,0.00,WeatherCatV1.02B3,2013-04-19 05:06:00,
2013-04-19 01:11:00,58.7,57.3,29.97,NNW,345,0.0,9.0,95,0.27,,,0.02,WeatherCatV1.02B3,2013-04-19 05:11:00,
2013-04-19 01:16:00,58.5,57.1,29.96,NNE,31,4.0,5.0,95,0.08,,,0.02,WeatherCatV1.02B3,2013-04-19 05:16:00,
2013-04-19 01:21:00,58.3,57.2,29.96,NNW,336,3.0,7.0,96,0.05,,,0.02,WeatherCatV1.02B3,2013-04-19 05:21:00,
2013-04-19 01:26:00,58.1,57.0,29.96,NNE,26,0.0,4.0,96,0.00,,,0.02,WeatherCatV1.02B3,2013-04-19 05:26:00,
2013-04-19 01:31:00,58.0,56.9,29.96,ENE,76,0.0,6.0,96,0.22,,,0.04,WeatherCatV1.02B3,2013-04-19 05:31:00,
2013-04-19 01:36:00,57.9,56.8,29.96,NNW,332,2.0,4.0,96,0.09,,,0.04,WeatherCatV1.02B3,2013-04-19 05:36:00,
2013-04-19 01:41:00,57.8,57.0,29.95,NW,314,5.0,6.0,97,0.05,,,0.04,WeatherCatV1.02B3,2013-04-19 05:41:00,
2013-04-19 01:46:00,57.7,56.9,29.95,NW,323,6.0,11.0,97,0.04,,,0.04,WeatherCatV1.02B3,2013-04-19 05:46:00,
2013-04-19 01:51:00,57.7,56.9,29.95,SW,230,3.0,5.0,97,0.00,,,0.04,WeatherCatV1.02B3,2013-04-19 05:51:00,
2013-04-19 01:56:00,57.6,56.8,29.95,SW,236,3.0,7.0,97,0.00,,,0.04,WeatherCatV1.02B3,2013-04-19 05:56:00,
2013-04-19 02:01:00,57.6,56.8,29.95,SSE,164,0.0,7.0,97,0.00,,,0.04,WeatherCatV1.02B3,2013-04-19 06:01:00,
2013-04-19 02:06:00,57.5,56.7,29.95,WSW,246,0.0,10.0,97,0.00,,,0.04,WeatherCatV1.02B3,2013-04-19 06:06:00,
2013-04-19 02:11:00,57.5,56.7,29.94,West,265,2.0,4.0,97,0.00,,,0.04,WeatherCatV1.02B3,2013-04-19 06:11:00,
2013-04-19 02:16:00,57.4,56.6,29.94,WNW,284,4.0,20.0,97,0.00,,,0.04,WeatherCatV1.02B3,2013-04-19 06:16:00,
2013-04-19 02:21:00,57.3,56.5,29.94,SE,130,0.0,7.0,97,0.00,,,0.04,WeatherCatV1.02B3,2013-04-19 06:21:00,
2013-04-19 02:26:00,57.3,56.7,29.94,WSW,253,0.0,6.0,98,0.00,,,0.04,WeatherCatV1.02B3,2013-04-19 06:26:00,
2013-04-19 02:31:00,57.2,56.6,29.94,WNW,297,2.0,15.0,98,0.00,,,0.04,WeatherCatV1.02B3,2013-04-19 06:31:00,
2013-04-19 02:36:00,57.2,56.6,29.93,NE,42,0.0,9.0,98,0.00,,,0.04,WeatherCatV1.02B3,2013-04-19 06:36:00,
2013-04-19 02:41:00,57.2,56.6,29.93,West,273,8.0,9.0,98,0.00,,,0.04,WeatherCatV1.02B3,2013-04-19 06:41:00,
2013-04-19 02:46:00,57.1,56.5,29.92,WNW,286,3.0,10.0,98,0.00,,,0.04,WeatherCatV1.02B3,2013-04-19 06:46:00,
2013-04-19 02:51:00,57.1,56.5,29.92,SSW,203,2.0,5.0,98,0.00,,,0.04,WeatherCatV1.02B3,2013-04-19 06:51:00,
2013-04-19 02:56:00,57.1,56.5,29.92,WSW,245,3.0,4.0,98,0.00,,,0.04,WeatherCatV1.02B3,2013-04-19 06:56:00,
2013-04-19 03:01:00,57.1,56.5,29.92,WSW,256,4.0,18.0,98,0.00,,,0.05,WeatherCatV1.02B3,2013-04-19 07:01:00,
2013-04-19 03:06:00,57.1,56.5,29.92,NNW,338,0.0,3.0,98,0.00,,,0.05,WeatherCatV1.02B3,2013-04-19 07:06:00,
2013-04-19 03:11:00,57.1,56.5,29.93,ENE,68,3.0,9.0,98,0.00,,,0.05,WeatherCatV1.02B3,2013-04-19 07:11:00,
2013-04-19 03:16:00,57.0,56.4,29.92,WNW,302,2.0,5.0,98,0.00,,,0.05,WeatherCatV1.02B3,2013-04-19 07:16:00,
2013-04-19 03:21:00,57.0,56.4,29.91,NNW,346,2.0,12.0,98,0.00,,,0.05,WeatherCatV1.02B3,2013-04-19 07:21:00,
2013-04-19 03:26:00,57.0,56.4,29.91,WNW,288,4.0,5.0,98,0.00,,,0.05,WeatherCatV1.02B3,2013-04-19 07:26:00,
2013-04-19 03:31:00,57.0,56.4,29.91,WSW,238,4.0,6.0,98,0.00,,,0.06,WeatherCatV1.02B3,2013-04-19 07:31:00,
2013-04-19 03:36:00,57.0,56.4,29.92,NW,309,6.0,9.0,98,0.00,,,0.06,WeatherCatV1.02B3,2013-04-19 07:36:00,
2013-04-19 03:41:00,57.0,56.4,29.92,NW,313,1.0,5.0,98,0.00,,,0.06,WeatherCatV1.02B3,2013-04-19 07:41:00,
2013-04-19 03:46:00,57.0,56.4,29.92,NNE,32,2.0,25.0,98,0.00,,,0.07,WeatherCatV1.02B3,2013-04-19 07:46:00,
2013-04-19 03:51:00,57.0,56.4,29.91,North,5,0.0,2.0,98,0.00,,,0.07,WeatherCatV1.02B3,2013-04-19 07:51:00,
2013-04-19 03:56:00,57.0,56.4,29.91,SW,220,0.0,17.0,98,0.00,,,0.07,WeatherCatV1.02B3,2013-04-19 07:56:00,
2013-04-19 04:01:00,56.9,56.3,29.91,WNW,300,5.0,5.0,98,0.00,,,0.07,WeatherCatV1.02B3,2013-04-19 08:01:00,
2013-04-19 04:06:00,56.9,56.3,29.91,NNE,18,3.0,6.0,98,0.00,,,0.07,WeatherCatV1.02B3,2013-04-19 08:06:00,
2013-04-19 04:11:00,56.9,56.3,29.91,West,270,1.0,3.0,98,0.00,,,0.07,WeatherCatV1.02B3,2013-04-19 08:11:00,
2013-04-19 04:16:00,56.9,56.6,29.90,West,259,1.0,6.0,99,0.00,,,0.07,WeatherCatV1.02B3,2013-04-19 08:16:00,
2013-04-19 04:21:00,56.8,56.5,29.90,North,11,0.0,3.0,99,0.00,,,0.07,WeatherCatV1.02B3,2013-04-19 08:21:00,
2013-04-19 04:26:00,56.8,56.5,29.89,NW,321,0.0,7.0,99,0.00,,,0.07,WeatherCatV1.02B3,2013-04-19 08:26:00,
2013-04-19 04:31:00,56.8,56.5,29.89,NW,323,0.0,4.0,99,0.00,,,0.07,WeatherCatV1.02B3,2013-04-19 08:31:00,
2013-04-19 04:36:00,56.8,56.5,29.89,NW,313,3.0,4.0,99,0.00,,,0.07,WeatherCatV1.02B3,2013-04-19 08:36:00,
2013-04-19 04:41:00,56.8,56.5,29.89,South,176,2.0,10.0,99,0.00,,,0.07,WeatherCatV1.02B3,2013-04-19 08:41:00,
2013-04-19 04:46:00,56.8,56.5,29.88,SSW,194,3.0,4.0,99,0.00,,,0.07,WeatherCatV1.02B3,2013-04-19 08:46:00,
2013-04-19 04:51:00,56.8,56.5,29.89,NW,324,1.0,4.0,99,0.00,,,0.07,WeatherCatV1.02B3,2013-04-19 08:51:00,
2013-04-19 04:56:00,56.8,56.5,29.89,NW,320,4.0,9.0,99,0.00,,,0.07,WeatherCatV1.02B3,2013-04-19 08:56:00,
2013-04-19 05:01:00,56.8,56.5,29.89,WNW,287,3.0,9.0,99,0.00,,,0.07,WeatherCatV1.02B3,2013-04-19 09:01:00,
2013-04-19 05:06:00,56.8,56.5,29.90,North,0,0.0,7.0,99,0.00,,,0.07,WeatherCatV1.02B3,2013-04-19 09:06:00,
2013-04-19 05:11:00,56.8,56.5,29.88,NW,324,3.0,5.0,99,0.00,,,0.07,WeatherCatV1.02B3,2013-04-19 09:11:00,
2013-04-19 05:16:00,56.8,56.5,29.88,NW,309,1.0,13.0,99,0.00,,,0.07,WeatherCatV1.02B3,2013-04-19 09:16:00,
2013-04-19 05:21:00,56.8,56.5,29.88,NW,310,0.0,16.0,99,0.00,,,0.07,WeatherCatV1.02B3,2013-04-19 09:21:00,
2013-04-19 05:26:00,56.9,56.6,29.88,North,355,2.0,6.0,99,0.00,,,0.07,WeatherCatV1.02B3,2013-04-19 09:26:00,
2013-04-19 05:31:00,56.9,56.6,29.87,SSW,202,7.0,15.0,99,0.00,,,0.07,WeatherCatV1.02B3,2013-04-19 09:31:00,
2013-04-19 05:36:00,56.9,56.6,29.88,West,271,4.0,9.0,99,0.00,,,0.07,WeatherCatV1.02B3,2013-04-19 09:36:00,
2013-04-19 05:41:00,56.9,56.6,29.87,NW,309,5.0,18.0,99,0.00,,,0.07,WeatherCatV1.02B3,2013-04-19 09:41:00,
2013-04-19 05:46:00,57.0,56.7,29.87,WSW,241,4.0,4.0,99,0.00,,,0.07,WeatherCatV1.02B3,2013-04-19 09:46:00,
2013-04-19 05:51:00,57.0,56.7,29.87,SW,223,5.0,20.0,99,0.00,,,0.07,WeatherCatV1.02B3,2013-04-19 09:51:00,
2013-04-19 05:56:00,57.1,56.8,29.87,WNW,295,3.0,9.0,99,0.00,,,0.07,WeatherCatV1.02B3,2013-04-19 09:56:00,
2013-04-19 06:01:00,57.1,56.8,29.86,NW,315,0.0,8.0,99,0.00,,,0.07,WeatherCatV1.02B3,2013-04-19 10:01:00,
2013-04-19 06:06:00,57.1,56.8,29.85,NNW,345,2.0,6.0,99,0.00,,,0.07,WeatherCatV1.02B3,2013-04-19 10:06:00,
2013-04-19 06:11:00,57.1,56.8,29.85,WSW,248,5.0,7.0,99,0.00,,,0.07,WeatherCatV1.02B3,2013-04-19 10:11:00,
2013-04-19 06:16:00,57.1,56.8,29.85,West,277,0.0,5.0,99,0.00,,,0.07,WeatherCatV1.02B3,2013-04-19 10:16:00,
2013-04-19 06:21:00,57.2,56.9,29.86,NW,316,5.0,6.0,99,0.00,,,0.07,WeatherCatV1.02B3,2013-04-19 10:21:00,
2013-04-19 06:26:00,57.2,56.9,29.87,NNW,342,4.0,4.0,99,0.00,,,0.07,WeatherCatV1.02B3,2013-04-19 10:26:00,
2013-04-19 06:31:00,57.2,56.9,29.87,North,349,5.0,5.0,99,0.00,,,0.07,WeatherCatV1.02B3,2013-04-19 10:31:00,
2013-04-19 06:36:00,57.2,56.9,29.85,West,277,6.0,14.0,99,0.00,,,0.07,WeatherCatV1.02B3,2013-04-19 10:36:00,
2013-04-19 06:41:00,57.3,57.0,29.85,SW,216,6.0,9.0,99,0.00,,,0.07,WeatherCatV1.02B3,2013-04-19 10:41:00,
2013-04-19 06:46:00,57.3,57.0,29.86,West,267,2.0,8.0,99,0.00,,,0.07,WeatherCatV1.02B3,2013-04-19 10:46:00,
2013-04-19 06:51:00,57.3,57.0,29.86,SW,216,2.0,11.0,99,0.00,,,0.07,WeatherCatV1.02B3,2013-04-19 10:51:00,
2013-04-19 06:56:00,57.3,57.0,29.87,West,263,1.0,10.0,99,0.00,,,0.07,WeatherCatV1.02B3,2013-04-19 10:56:00,
2013-04-19 07:01:00,57.3,57.0,29.87,West,276,0.0,7.0,99,0.00,,,0.07,WeatherCatV1.02B3,2013-04-19 11:01:00,
2013-04-19 07:06:00,57.4,57.1,29.87,NW,323,6.0,6.0,99,0.00,,,0.07,WeatherCatV1.02B3,2013-04-19 11:06:00,
2013-04-19 07:11:00,57.4,57.1,29.87,WSW,250,4.0,13.0,99,0.00,,,0.07,WeatherCatV1.02B3,2013-04-19 11:11:00,
2013-04-19 07:16:00,57.4,57.1,29.88,NE,45,10.0,11.0,99,0.00,,,0.07,WeatherCatV1.02B3,2013-04-19 11:16:00,
2013-04-19 07:21:00,57.4,57.1,29.88,NW,313,0.0,11.0,99,0.00,,,0.07,WeatherCatV1.02B3,2013-04-19 11:21:00,
2013-04-19 07:26:00,57.4,57.1,29.88,WSW,255,2.0,6.0,99,0.00,,,0.07,WeatherCatV1.02B3,2013-04-19 11:26:00,
2013-04-19 07:31:00,57.4,57.1,29.88,NNW,331,9.0,10.0,99,0.00,,,0.07,WeatherCatV1.02B3,2013-04-19 11:31:00,
2013-04-19 07:36:00,57.4,57.1,29.88,WNW,290,3.0,7.0,99,0.00,,,0.07,WeatherCatV1.02B3,2013-04-19 11:36:00,
2013-04-19 07:41:00,57.4,57.1,29.88,WSW,252,3.0,5.0,99,0.00,,,0.07,WeatherCatV1.02B3,2013-04-19 11:41:00,
2013-04-19 07:46:00,57.4,57.1,29.89,WNW,288,5.0,6.0,99,0.00,,,0.07,WeatherCatV1.02B3,2013-04-19 11:46:00,
2013-04-19 07:51:00,57.4,56.8,29.89,NNW,336,2.0,14.0,98,0.00,,,0.07,WeatherCatV1.02B3,2013-04-19 11:51:00,
2013-04-19 07:56:00,57.4,56.8,29.89,West,276,0.0,4.0,98,0.00,,,0.07,WeatherCatV1.02B3,2013-04-19 11:56:00,
2013-04-19 08:01:00,57.4,56.8,29.88,SSW,196,1.0,9.0,98,0.00,,,0.07,WeatherCatV1.02B3,2013-04-19 12:01:00,
2013-04-19 08:06:00,57.4,56.8,29.88,WNW,299,3.0,6.0,98,0.00,,,0.07,WeatherCatV1.02B3,2013-04-19 12:06:00,
2013-04-19 08:11:00,57.3,56.7,29.88,SSW,210,3.0,13.0,98,0.00,,,0.07,WeatherCatV1.02B3,2013-04-19 12:11:00,
2013-04-19 08:16:00,57.4,56.8,29.88,SE,129,3.0,6.0,98,0.00,,,0.07,WeatherCatV1.02B3,2013-04-19 12:16:00,
2013-04-19 08:21:00,57.4,56.8,29.88,NNE,24,3.0,3.0,98,0.00,,,0.07,WeatherCatV1.02B3,2013-04-19 12:21:00,
2013-04-19 08:26:00,57.5,56.9,29.87,South,176,2.0,13.0,98,0.00,,,0.07,WeatherCatV1.02B3,2013-04-19 12:26:00,
2013-04-19 08:31:00,57.5,56.9,29.88,NW,323,4.0,5.0,98,0.00,,,0.07,WeatherCatV1.02B3,2013-04-19 12:31:00,
2013-04-19 08:36:00,57.5,56.9,29.87,NNE,20,1.0,3.0,98,0.00,,,0.07,WeatherCatV1.02B3,2013-04-19 12:36:00,
2013-04-19 08:41:00,57.6,57.0,29.87,South,189,5.0,7.0,98,0.00,,,0.07,WeatherCatV1.02B3,2013-04-19 12:41:00,
2013-04-19 08:46:00,57.6,57.0,29.86,WSW,246,4.0,12.0,98,0.00,,,0.07,WeatherCatV1.02B3,2013-04-19 12:46:00,
2013-04-19 08:48:00,57.5,56.9,29.86,NNW,342,0.0,5.0,98,0.00,,,0.07,WeatherCatV1.02B3,2013-04-19 12:48:00,
2013-04-19 08:53:00,57.5,56.9,29.85,SSW,207,0.0,9.0,98,0.00,,,0.07,WeatherCatV1.02B3,2013-04-19 12:53:00,
2013-04-19 08:56:00,57.5,56.9,29.85,North,0,3.0,7.0,98,0.00,,,0.07,WeatherCatV1.02B3,2013-04-19 12:56:00,
2013-04-19 09:01:00,57.5,56.9,29.85,SSW,207,0.0,12.0,98,0.00,,,0.07,WeatherCatV1.02B3,2013-04-19 13:01:00,
2013-04-19 09:06:00,57.5,56.9,29.86,West,271,1.0,5.0,98,0.00,,,0.07,WeatherCatV1.02B3,2013-04-19 13:06:00,
2013-04-19 09:11:00,57.5,56.9,29.86,NNW,346,3.0,12.0,98,0.00,,,0.07,WeatherCatV1.02B3,2013-04-19 13:11:00,
2013-04-19 09:16:00,57.6,57.0,29.85,SSW,211,8.0,15.0,98,0.00,,,0.07,WeatherCatV1.02B3,2013-04-19 13:16:00,
2013-04-19 09:21:00,57.6,57.0,29.86,SW,217,3.0,5.0,98,0.00,,,0.08,WeatherCatV1.02B3,2013-04-19 13:21:00,
2013-04-19 09:26:00,57.6,57.0,29.88,NNW,334,5.0,5.0,98,0.46,,,0.14,WeatherCatV1.02B3,2013-04-19 13:26:00,
2013-04-19 09:31:00,57.6,57.0,29.87,North,350,4.0,7.0,98,0.79,,,0.17,WeatherCatV1.02B3,2013-04-19 13:31:00,
2013-04-19 09:36:00,57.6,57.0,29.87,NNW,327,4.0,7.0,98,0.11,,,0.17,WeatherCatV1.02B3,2013-04-19 13:36:00,
2013-04-19 09:41:00,57.6,57.0,29.85,NW,320,4.0,9.0,98,0.11,,,0.18,WeatherCatV1.02B3,2013-04-19 13:41:00,
2013-04-19 09:46:00,57.5,56.9,29.85,NNW,328,4.0,6.0,98,0.06,,,0.18,WeatherCatV1.02B3,2013-04-19 13:46:00,
2013-04-19 09:51:00,57.5,56.9,29.85,West,281,0.0,5.0,98,0.04,,,0.18,WeatherCatV1.02B3,2013-04-19 13:51:00,
2013-04-19 09:56:00,57.6,57.3,29.87,NE,37,5.0,14.0,99,0.00,,,0.19,WeatherCatV1.02B3,2013-04-19 13:56:00,
2013-04-19 10:01:00,57.6,57.3,29.86,WNW,300,6.0,7.0,99,0.00,,,0.19,WeatherCatV1.02B3,2013-04-19 14:01:00,
2013-04-19 10:06:00,57.7,57.4,29.85,SW,229,4.0,5.0,99,0.09,,,0.20,WeatherCatV1.02B3,2013-04-19 14:06:00,
2013-04-19 10:11:00,57.8,57.5,29.85,West,267,5.0,10.0,99,0.06,,,0.20,WeatherCatV1.02B3,2013-04-19 14:11:00,
2013-04-19 10:16:00,57.8,57.5,29.86,NNW,332,3.0,12.0,99,0.04,,,0.20,WeatherCatV1.02B3,2013-04-19 14:16:00,
2013-04-19 10:21:00,57.8,57.5,29.84,West,276,3.0,6.0,99,0.00,,,0.20,WeatherCatV1.02B3,2013-04-19 14:21:00,
2013-04-19 10:26:00,57.8,57.5,29.85,NNW,343,4.0,13.0,99,0.00,,,0.20,WeatherCatV1.02B3,2013-04-19 14:26:00,
2013-04-19 10:31:00,57.9,57.6,29.84,NNE,32,1.0,5.0,99,0.00,,,0.20,WeatherCatV1.02B3,2013-04-19 14:31:00,
2013-04-19 10:36:00,58.0,57.7,29.83,NNW,343,5.0,5.0,99,0.00,,,0.20,WeatherCatV1.02B3,2013-04-19 14:36:00,
2013-04-19 10:41:00,58.0,57.7,29.81,SW,230,3.0,5.0,99,0.00,,,0.20,WeatherCatV1.02B3,2013-04-19 14:41:00,
2013-04-19 10:46:00,58.0,57.7,29.83,NW,318,3.0,9.0,99,0.00,,,0.20,WeatherCatV1.02B3,2013-04-19 14:46:00,
2013-04-19 10:51:00,58.0,57.7,29.84,ESE,106,5.0,5.0,99,0.00,,,0.20,WeatherCatV1.02B3,2013-04-19 14:51:00,
2013-04-19 10:56:00,58.1,57.8,29.83,West,278,3.0,7.0,99,0.00,,,0.20,WeatherCatV1.02B3,2013-04-19 14:56:00,
2013-04-19 11:01:00,58.1,57.8,29.83,North,355,1.0,4.0,99,0.00,,,0.20,WeatherCatV1.02B3,2013-04-19 15:01:00,
2013-04-19 11:06:00,58.2,57.9,29.83,WNW,294,0.0,6.0,99,0.00,,,0.20,WeatherCatV1.02B3,2013-04-19 15:06:00,
2013-04-19 11:11:00,58.2,57.9,29.83,WSW,238,1.0,12.0,99,0.00,,,0.20,WeatherCatV1.02B3,2013-04-19 15:11:00,
2013-04-19 11:16:00,58.2,57.9,29.83,West,269,4.0,10.0,99,0.00,,,0.20,WeatherCatV1.02B3,2013-04-19 15:16:00,
2013-04-19 11:21:00,58.2,57.9,29.84,South,191,5.0,7.0,99,0.00,,,0.20,WeatherCatV1.02B3,2013-04-19 15:21:00,
2013-04-19 11:26:00,58.2,57.9,29.84,SE,142,5.0,9.0,99,0.00,,,0.20,WeatherCatV1.02B3,2013-04-19 15:26:00,
2013-04-19 11:31:00,58.2,57.9,29.83,NW,318,6.0,9.0,99,0.00,,,0.21,WeatherCatV1.02B3,2013-04-19 15:31:00,
2013-04-19 11:36:00,58.3,58.0,29.82,ESE,121,2.0,10.0,99,0.00,,,0.21,WeatherCatV1.02B3,2013-04-19 15:36:00,
2013-04-19 11:41:00,58.4,58.1,29.82,NW,317,0.0,15.0,99,0.00,,,0.21,WeatherCatV1.02B3,2013-04-19 15:41:00,
2013-04-19 11:46:00,58.4,58.1,29.81,East,81,2.0,7.0,99,0.00,,,0.21,WeatherCatV1.02B3,2013-04-19 15:46:00,
2013-04-19 11:51:00,58.4,58.1,29.82,NNW,336,0.0,2.0,99,0.00,,,0.21,WeatherCatV1.02B3,2013-04-19 15:51:00,
2013-04-19 11:56:00,58.4,58.1,29.81,South,188,5.0,12.0,99,0.00,,,0.22,WeatherCatV1.02B3,2013-04-19 15:56:00,
2013-04-19 12:01:00,58.5,58.2,29.81,WSW,246,1.0,12.0,99,0.00,,,0.22,WeatherCatV1.02B3,2013-04-19 16:01:00,
2013-04-19 12:06:00,58.5,58.2,29.81,NNW,346,0.0,5.0,99,0.00,,,0.22,WeatherCatV1.02B3,2013-04-19 16:06:00,
2013-04-19 12:11:00,58.5,58.2,29.80,WNW,290,3.0,12.0,99,0.00,,,0.22,WeatherCatV1.02B3,2013-04-19 16:11:00,
2013-04-19 12:16:00,58.5,58.2,29.80,NW,319,1.0,7.0,99,0.00,,,0.22,WeatherCatV1.02B3,2013-04-19 16:16:00,
2013-04-19 12:21:00,58.6,58.3,29.80,North,9,3.0,6.0,99,0.00,,,0.22,WeatherCatV1.02B3,2013-04-19 16:21:00,
2013-04-19 12:26:00,58.7,58.4,29.80,West,269,3.0,6.0,99,0.00,,,0.22,WeatherCatV1.02B3,2013-04-19 16:26:00,
2013-04-19 12:31:00,58.7,58.4,29.81,NNW,331,6.0,12.0,99,0.00,,,0.22,WeatherCatV1.02B3,2013-04-19 16:31:00,
2013-04-19 12:36:00,58.7,58.4,29.80,North,0,3.0,4.0,99,0.00,,,0.22,WeatherCatV1.02B3,2013-04-19 16:36:00,
2013-04-19 12:41:00,58.7,58.4,29.80,SW,220,1.0,1.0,99,0.00,,,0.22,WeatherCatV1.02B3,2013-04-19 16:41:00,
2013-04-19 12:46:00,58.8,58.5,29.80,SSE,163,0.0,5.0,99,0.00,,,0.23,WeatherCatV1.02B3,2013-04-19 16:46:00,
2013-04-19 12:51:00,58.9,58.6,29.80,NW,317,0.0,7.0,99,0.14,,,0.24,WeatherCatV1.02B3,2013-04-19 16:51:00,
2013-04-19 12:56:00,58.9,58.6,29.79,WSW,250,3.0,5.0,99,0.13,,,0.25,WeatherCatV1.02B3,2013-04-19 16:56:00,
2013-04-19 13:01:00,58.9,58.6,29.80,WSW,240,2.0,6.0,99,0.36,,,0.28,WeatherCatV1.02B3,2013-04-19 17:01:00,
2013-04-19 13:06:00,59.0,58.7,29.80,West,268,5.0,11.0,99,0.33,,,0.31,WeatherCatV1.02B3,2013-04-19 17:06:00,
2013-04-19 13:11:00,59.0,58.7,29.79,SSW,211,5.0,8.0,99,0.15,,,0.32,WeatherCatV1.02B3,2013-04-19 17:11:00,
2013-04-19 13:16:00,59.0,58.7,29.79,SSW,194,4.0,6.0,99,0.13,,,0.33,WeatherCatV1.02B3,2013-04-19 17:16:00,
2013-04-19 13:21:00,58.9,58.6,29.80,NNW,337,0.0,6.0,99,0.31,,,0.35,WeatherCatV1.02B3,2013-04-19 17:21:00,
2013-04-19 13:26:00,58.9,58.6,29.80,NNW,340,0.0,4.0,99,0.27,,,0.37,WeatherCatV1.02B3,2013-04-19 17:26:00,
2013-04-19 13:31:00,58.9,58.6,29.80,SSW,197,0.0,4.0,99,0.22,,,0.39,WeatherCatV1.02B3,2013-04-19 17:31:00,
2013-04-19 13:36:00,59.0,58.7,29.80,West,266,9.0,14.0,99,0.30,,,0.41,WeatherCatV1.02B3,2013-04-19 17:36:00,
2013-04-19 13:41:00,59.0,58.7,29.79,NNE,24,2.0,5.0,99,0.50,,,0.44,WeatherCatV1.02B3,2013-04-19 17:41:00,
2013-04-19 13:46:00,59.0,58.7,29.78,WSW,254,1.0,5.0,99,0.45,,,0.49,WeatherCatV1.02B3,2013-04-19 17:46:00,
2013-04-19 13:51:00,58.9,58.6,29.80,ESE,113,4.0,24.0,99,0.55,,,0.54,WeatherCatV1.02B3,2013-04-19 17:51:00,
2013-04-19 13:56:00,59.0,58.7,29.81,East,88,0.0,20.0,99,0.48,,,0.59,WeatherCatV1.02B3,2013-04-19 17:56:00,
2013-04-19 14:01:00,59.0,58.7,29.81,WNW,283,6.0,9.0,99,0.27,,,0.62,WeatherCatV1.02B3,2013-04-19 18:01:00,
2013-04-19 14:06:00,59.0,58.7,29.81,WSW,254,0.0,7.0,99,0.13,,,0.63,WeatherCatV1.02B3,2013-04-19 18:06:00,
2013-04-19 14:11:00,59.0,58.7,29.82,WNW,286,0.0,5.0,99,0.10,,,0.64,WeatherCatV1.02B3,2013-04-19 18:11:00,
2013-04-19 14:16:00,59.0,58.7,29.82,NNW,336,0.0,6.0,99,0.12,,,0.65,WeatherCatV1.02B3,2013-04-19 18:16:00,
2013-04-19 14:21:00,59.0,58.7,29.81,SSE,152,7.0,7.0,99,0.08,,,0.66,WeatherCatV1.02B3,2013-04-19 18:21:00,
2013-04-19 14:26:00,59.0,58.7,29.82,NNW,330,1.0,5.0,99,0.08,,,0.66,WeatherCatV1.02B3,2013-04-19 18:26:00,
2013-04-19 14:31:00,58.9,58.6,29.81,NNW,339,2.0,10.0,99,0.06,,,0.67,WeatherCatV1.02B3,2013-04-19 18:31:00,
2013-04-19 14:36:00,58.8,58.5,29.81,WSW,255,3.0,10.0,99,0.06,,,0.67,WeatherCatV1.02B3,2013-04-19 18:36:00,
2013-04-19 14:41:00,58.7,58.4,29.81,South,172,1.0,7.0,99,0.06,,,0.68,WeatherCatV1.02B3,2013-04-19 18:41:00,
2013-04-19 14:46:00,58.6,58.3,29.81,WNW,288,7.0,11.0,99,0.06,,,0.68,WeatherCatV1.02B3,2013-04-19 18:46:00,
2013-04-19 14:51:00,58.5,58.2,29.81,South,173,0.0,7.0,99,0.06,,,0.68,WeatherCatV1.02B3,2013-04-19 18:51:00,
2013-04-19 14:56:00,58.4,58.1,29.81,SSE,163,4.0,7.0,99,0.04,,,0.68,WeatherCatV1.02B3,2013-04-19 18:56:00,
2013-04-19 15:01:00,58.3,58.0,29.81,NNW,331,3.0,11.0,99,0.04,,,0.69,WeatherCatV1.02B3,2013-04-19 19:01:00,
2013-04-19 15:06:00,58.2,57.9,29.81,SW,227,11.0,11.0,99,0.09,,,0.70,WeatherCatV1.02B3,2013-04-19 19:06:00,
2013-04-19 15:11:00,58.1,57.8,29.81,WSW,242,0.0,5.0,99,0.16,,,0.72,WeatherCatV1.02B3,2013-04-19 19:11:00,
2013-04-19 15:16:00,58.0,57.7,29.81,SW,215,2.0,7.0,99,0.14,,,0.73,WeatherCatV1.02B3,2013-04-19 19:16:00,
2013-04-19 15:21:00,58.0,57.7,29.81,South,190,6.0,6.0,99,1.11,,,0.80,WeatherCatV1.02B3,2013-04-19 19:21:00,
2013-04-19 15:26:00,57.9,57.6,29.81,North,350,3.0,8.0,99,0.50,,,0.85,WeatherCatV1.02B3,2013-04-19 19:26:00,
2013-04-19 15:31:00,57.8,57.5,29.80,NNW,345,4.0,11.0,99,0.32,,,0.88,WeatherCatV1.02B3,2013-04-19 19:31:00,
2013-04-19 15:36:00,57.6,57.3,29.81,SSW,207,5.0,17.0,99,0.14,,,0.89,WeatherCatV1.02B3,2013-04-19 19:36:00,
2013-04-19 15:41:00,57.5,57.2,29.80,NW,311,0.0,4.0,99,0.12,,,0.90,WeatherCatV1.02B3,2013-04-19 19:41:00,
2013-04-19 15:46:00,57.4,57.1,29.78,South,175,2.0,4.0,99,0.06,,,0.90,WeatherCatV1.02B3,2013-04-19 19:46:00,
2013-04-19 15:51:00,57.3,57.0,29.78,SSW,195,3.0,11.0,99,0.04,,,0.90,WeatherCatV1.02B3,2013-04-19 19:51:00,
2013-04-19 15:56:00,57.2,56.9,29.78,North,0,5.0,11.0,99,0.00,,,0.90,WeatherCatV1.02B3,2013-04-19 19:56:00,
2013-04-19 16:01:00,57.2,56.9,29.79,West,271,2.0,5.0,99,0.00,,,0.90,WeatherCatV1.02B3,2013-04-19 20:01:00,
2013-04-19 16:06:00,57.1,56.8,29.79,WSW,242,0.0,12.0,99,0.00,,,0.90,WeatherCatV1.02B3,2013-04-19 20:06:00,
2013-04-19 16:11:00,57.1,56.8,29.79,West,265,6.0,6.0,99,0.00,,,0.90,WeatherCatV1.02B3,2013-04-19 20:11:00,
2013-04-19 16:16:00,57.0,56.7,29.79,SW,222,6.0,13.0,99,0.00,,,0.90,WeatherCatV1.02B3,2013-04-19 20:16:00,
2013-04-19 16:21:00,56.9,56.6,29.79,SSE,155,0.0,7.0,99,0.00,,,0.90,WeatherCatV1.02B3,2013-04-19 20:21:00,
2013-04-19 16:26:00,56.9,56.6,29.79,NW,318,0.0,1.0,99,0.00,,,0.90,WeatherCatV1.02B3,2013-04-19 20:26:00,
2013-04-19 16:31:00,56.8,56.5,29.76,ENE,59,4.0,9.0,99,0.00,,,0.91,WeatherCatV1.02B3,2013-04-19 20:31:00,
2013-04-19 16:36:00,56.7,56.4,29.77,SSW,199,2.0,6.0,99,0.00,,,0.91,WeatherCatV1.02B3,2013-04-19 20:36:00,
2013-04-19 16:41:00,56.7,56.4,29.77,WSW,255,1.0,5.0,99,0.00,,,0.91,WeatherCatV1.02B3,2013-04-19 20:41:00,
2013-04-19 16:46:00,56.7,56.4,29.77,WSW,254,2.0,6.0,99,0.00,,,0.91,WeatherCatV1.02B3,2013-04-19 20:46:00,
2013-04-19 16:51:00,56.7,56.4,29.79,SW,229,7.0,8.0,99,0.00,,,0.91,WeatherCatV1.02B3,2013-04-19 20:51:00,
2013-04-19 16:56:00,56.7,56.4,29.79,SE,133,5.0,6.0,99,0.00,,,0.91,WeatherCatV1.02B3,2013-04-19 20:56:00,
2013-04-19 17:01:00,56.7,56.4,29.79,NW,313,0.0,1.0,99,0.00,,,0.91,WeatherCatV1.02B3,2013-04-19 21:01:00,
2013-04-19 17:06:00,56.7,56.4,29.77,SSW,209,4.0,7.0,99,0.00,,,0.91,WeatherCatV1.02B3,2013-04-19 21:06:00,
2013-04-19 17:11:00,56.6,56.3,29.78,West,281,2.0,4.0,99,0.00,,,0.91,WeatherCatV1.02B3,2013-04-19 21:11:00,
2013-04-19 17:16:00,56.7,56.4,29.79,South,172,1.0,4.0,99,0.00,,,0.91,WeatherCatV1.02B3,2013-04-19 21:16:00,
2013-04-19 17:21:00,56.6,56.3,29.79,South,182,0.0,1.0,99,0.00,,,0.91,WeatherCatV1.02B3,2013-04-19 21:21:00,
2013-04-19 17:26:00,56.5,56.2,29.77,East,87,0.0,4.0,99,0.00,,,0.91,WeatherCatV1.02B3,2013-04-19 21:26:00,
2013-04-19 17:31:00,56.4,56.1,29.78,WSW,250,1.0,1.0,99,0.00,,,0.91,WeatherCatV1.02B3,2013-04-19 21:31:00,
2013-04-19 17:36:00,56.4,56.1,29.79,West,268,3.0,7.0,99,0.00,,,0.91,WeatherCatV1.02B3,2013-04-19 21:36:00,
2013-04-19 17:41:00,56.2,55.9,29.80,WNW,291,3.0,3.0,99,0.00,,,0.91,WeatherCatV1.02B3,2013-04-19 21:41:00,
2013-04-19 17:46:00,56.0,55.7,29.80,NE,45,0.0,4.0,99,0.00,,,0.91,WeatherCatV1.02B3,2013-04-19 21:46:00,
2013-04-19 17:51:00,56.0,55.7,29.80,WNW,302,0.0,3.0,99,0.00,,,0.91,WeatherCatV1.02B3,2013-04-19 21:51:00,
2013-04-19 17:56:00,55.0,54.7,29.80,WSW,253,0.0,4.0,99,0.00,,,0.91,WeatherCatV1.02B3,2013-04-19 21:56:00,
2013-04-19 18:01:00,53.5,52.9,29.80,SSE,165,4.0,9.0,98,0.00,,,0.91,WeatherCatV1.02B3,2013-04-19 22:01:00,
2013-04-19 18:06:00,51.7,50.9,29.79,NNW,342,2.0,7.0,97,0.00,,,0.91,WeatherCatV1.02B3,2013-04-19 22:06:00,
2013-04-19 18:11:00,50.7,49.9,29.80,WNW,282,4.0,10.0,97,0.00,,,0.91,WeatherCatV1.02B3,2013-04-19 22:11:00,
2013-04-19 18:16:00,50.0,49.5,29.81,SW,234,5.0,8.0,98,0.00,,,0.91,WeatherCatV1.02B3,2013-04-19 22:16:00,
2013-04-19 18:21:00,49.5,49.0,29.81,NW,311,1.0,9.0,98,0.00,,,0.91,WeatherCatV1.02B3,2013-04-19 22:21:00,
2013-04-19 18:26:00,49.1,48.6,29.82,SSE,156,3.0,5.0,98,0.00,,,0.91,WeatherCatV1.02B3,2013-04-19 22:26:00,
2013-04-19 18:31:00,48.6,48.1,29.82,SSW,208,0.0,6.0,98,0.00,,,0.91,WeatherCatV1.02B3,2013-04-19 22:31:00,
2013-04-19 18:36:00,48.2,47.4,29.81,North,5,4.0,5.0,97,0.00,,,0.91,WeatherCatV1.02B3,2013-04-19 22:36:00,
2013-04-19 18:41:00,47.8,47.0,29.81,West,275,0.0,11.0,97,0.00,,,0.91,WeatherCatV1.02B3,2013-04-19 22:41:00,
2013-04-19 18:46:00,47.5,46.7,29.81,North,355,0.0,3.0,97,0.00,,,0.91,WeatherCatV1.02B3,2013-04-19 22:46:00,
2013-04-19 18:51:00,47.3,46.8,29.81,NNE,24,0.0,0.0,98,0.00,,,0.91,WeatherCatV1.02B3,2013-04-19 22:51:00,
2013-04-19 18:56:00,47.1,46.3,29.81,West,267,7.0,7.0,97,0.00,,,0.91,WeatherCatV1.02B3,2013-04-19 22:56:00,
2013-04-19 19:01:00,46.8,46.0,29.79,NW,306,4.0,7.0,97,0.00,,,0.91,WeatherCatV1.02B3,2013-04-19 23:01:00,
2013-04-19 19:06:00,46.5,45.7,29.80,NNE,21,2.0,3.0,97,0.00,,,0.91,WeatherCatV1.02B3,2013-04-19 23:06:00,
2013-04-19 19:11:00,46.3,45.2,29.80,NNW,347,0.0,10.0,96,0.00,,,0.91,WeatherCatV1.02B3,2013-04-19 23:11:00,
2013-04-19 19:16:00,46.1,44.5,29.80,NNW,341,1.0,5.0,94,0.00,,,0.91,WeatherCatV1.02B3,2013-04-19 23:16:00,
2013-04-19 19:21:00,45.8,43.3,29.80,West,265,0.0,14.0,91,0.00,,,0.91,WeatherCatV1.02B3,2013-04-19 23:21:00,
2013-04-19 19:26:00,45.5,42.7,29.82,NNW,333,4.0,6.0,90,0.00,,,0.91,WeatherCatV1.02B3,2013-04-19 23:26:00,
2013-04-19 19:31:00,45.3,42.8,29.81,NNW,327,2.0,4.0,91,0.00,,,0.91,WeatherCatV1.02B3,2013-04-19 23:31:00,
2013-04-19 19:36:00,45.1,42.9,29.82,WNW,295,0.0,6.0,92,0.00,,,0.91,WeatherCatV1.02B3,2013-04-19 23:36:00,
2013-04-19 19:41:00,45.0,42.8,29.82,NNW,337,0.0,2.0,92,0.00,,,0.91,WeatherCatV1.02B3,2013-04-19 23:41:00,
2013-04-19 19:46:00,45.0,42.8,29.81,North,355,7.0,10.0,92,0.00,,,0.91,WeatherCatV1.02B3,2013-04-19 23:46:00,
2013-04-19 19:51:00,45.0,42.8,29.82,NNE,13,5.0,12.0,92,0.00,,,0.91,WeatherCatV1.02B3,2013-04-19 23:51:00,
2013-04-19 19:56:00,44.9,43.0,29.83,ESE,107,1.0,3.0,93,0.00,,,0.91,WeatherCatV1.02B3,2013-04-19 23:56:00,
2013-04-19 20:01:00,44.7,42.2,29.84,NNE,13,4.0,4.0,91,0.00,,,0.91,WeatherCatV1.02B3,2013-04-20 00:01:00,
2013-04-19 20:06:00,44.6,42.1,29.84,NNE,13,4.0,9.0,91,0.00,,,0.91,WeatherCatV1.02B3,2013-04-20 00:06:00,
2013-04-19 20:11:00,44.6,42.4,29.84,SSE,157,2.0,5.0,92,0.00,,,0.91,WeatherCatV1.02B3,2013-04-20 00:11:00,
2013-04-19 20:12:00,44.5,42.3,29.84,NE,53,4.0,7.0,92,0.00,,,0.91,WeatherCatV1.02B3,2013-04-20 00:12:00,
2013-04-19 20:17:00,44.4,42.5,29.84,WNW,298,10.0,18.0,93,0.00,,,0.91,WeatherCatV1.02B3,2013-04-20 00:17:00,
2013-04-19 20:22:00,44.0,42.4,29.84,West,267,4.0,7.0,94,0.00,,,0.91,WeatherCatV1.02B3,2013-04-20 00:22:00,
2013-04-19 20:27:00,43.7,42.1,29.84,NNW,334,7.0,12.0,94,0.00,,,0.91,WeatherCatV1.02B3,2013-04-20 00:27:00,
2013-04-19 20:32:00,43.5,42.2,29.84,NNW,340,4.0,11.0,95,0.00,,,0.91,WeatherCatV1.02B3,2013-04-20 00:32:00,
2013-04-19 20:37:00,43.4,42.3,29.83,NNW,346,4.0,11.0,96,0.00,,,0.91,WeatherCatV1.02B3,2013-04-20 00:37:00,
2013-04-19 20:42:00,43.2,42.1,29.84,NW,319,6.0,15.0,96,0.00,,,0.91,WeatherCatV1.02B3,2013-04-20 00:42:00,
2013-04-19 20:47:00,43.1,42.0,29.83,NNW,335,4.0,18.0,96,0.00,,,0.91,WeatherCatV1.02B3,2013-04-20 00:47:00,
2013-04-19 20:52:00,42.9,41.8,29.84,NNE,22,2.0,18.0,96,0.00,,,0.91,WeatherCatV1.02B3,2013-04-20 00:52:00,
2013-04-19 20:57:00,42.5,41.4,29.85,North,9,7.0,17.0,96,0.00,,,0.91,WeatherCatV1.02B3,2013-04-20 00:57:00,
2013-04-19 21:02:00,42.2,40.9,29.86,North,0,11.0,12.0,95,0.00,,,0.91,WeatherCatV1.02B3,2013-04-20 01:02:00,
2013-04-19 21:07:00,41.9,40.3,29.87,East,88,4.0,16.0,94,0.00,,,0.91,WeatherCatV1.02B3,2013-04-20 01:07:00,
2013-04-19 21:12:00,41.6,40.0,29.88,NNW,348,5.0,13.0,94,0.00,,,0.91,WeatherCatV1.02B3,2013-04-20 01:12:00,
2013-04-19 21:17:00,41.3,39.4,29.88,NW,325,12.0,14.0,93,0.00,,,0.91,WeatherCatV1.02B3,2013-04-20 01:17:00,
2013-04-19 21:22:00,41.1,39.2,29.88,NE,46,5.0,16.0,93,0.00,,,0.91,WeatherCatV1.02B3,2013-04-20 01:22:00,
2013-04-19 21:27:00,40.9,38.8,29.88,North,0,13.0,14.0,92,0.00,,,0.91,WeatherCatV1.02B3,2013-04-20 01:27:00,
2013-04-19 21:32:00,40.6,38.5,29.88,North,9,12.0,27.0,92,0.00,,,0.91,WeatherCatV1.02B3,2013-04-20 01:32:00,
2013-04-19 21:37:00,40.4,38.3,29.89,NW,325,12.0,21.0,92,0.00,,,0.91,WeatherCatV1.02B3,2013-04-20 01:37:00,
2013-04-19 21:42:00,40.2,37.8,29.89,North,355,7.0,12.0,91,0.00,,,0.91,WeatherCatV1.02B3,2013-04-20 01:42:00,
2013-04-19 21:47:00,40.0,37.6,29.89,North,10,11.0,13.0,91,0.00,,,0.91,WeatherCatV1.02B3,2013-04-20 01:47:00,
2013-04-19 21:52:00,39.8,37.4,29.91,North,5,22.0,25.0,91,0.00,,,0.91,WeatherCatV1.02B3,2013-04-20 01:52:00,
2013-04-19 21:57:00,39.7,37.3,29.91,NNE,22,10.0,16.0,91,0.00,,,0.91,WeatherCatV1.02B3,2013-04-20 01:57:00,
2013-04-19 22:02:00,39.4,36.7,29.91,NNW,340,6.0,23.0,90,0.00,,,0.91,WeatherCatV1.02B3,2013-04-20 02:02:00,
2013-04-19 22:07:00,39.3,36.6,29.91,NNW,337,13.0,21.0,90,0.00,,,0.91,WeatherCatV1.02B3,2013-04-20 02:07:00,
2013-04-19 22:12:00,39.1,36.7,29.92,NNW,338,10.0,20.0,91,0.00,,,0.91,WeatherCatV1.02B3,2013-04-20 02:12:00,
2013-04-19 22:17:00,38.9,36.2,29.92,NW,321,11.0,15.0,90,0.00,,,0.91,WeatherCatV1.02B3,2013-04-20 02:17:00,
2013-04-19 22:22:00,38.6,35.9,29.93,NE,42,13.0,21.0,90,0.00,,,0.91,WeatherCatV1.02B3,2013-04-20 02:22:00,
2013-04-19 22:27:00,38.3,35.3,29.94,NNE,30,10.0,21.0,89,0.00,,,0.91,WeatherCatV1.02B3,2013-04-20 02:27:00,
2013-04-19 22:32:00,37.9,34.7,29.94,NNE,29,4.0,22.0,88,0.00,,,0.91,WeatherCatV1.02B3,2013-04-20 02:32:00,
2013-04-19 22:37:00,37.6,34.1,29.94,NNE,17,9.0,14.0,87,0.00,,,0.91,WeatherCatV1.02B3,2013-04-20 02:37:00,
2013-04-19 22:42:00,37.4,33.9,29.94,North,355,9.0,13.0,87,0.00,,,0.91,WeatherCatV1.02B3,2013-04-20 02:42:00,
2013-04-19 22:47:00,37.2,34.0,29.95,North,5,10.0,16.0,88,0.00,,,0.91,WeatherCatV1.02B3,2013-04-20 02:47:00,
2013-04-19 22:52:00,37.1,33.9,29.95,NW,313,9.0,14.0,88,0.00,,,0.91,WeatherCatV1.02B3,2013-04-20 02:52:00,
2013-04-19 22:57:00,37.0,33.5,29.96,NNW,334,10.0,23.0,87,0.00,,,0.91,WeatherCatV1.02B3,2013-04-20 02:57:00,
2013-04-19 23:02:00,37.0,33.8,29.95,NNW,346,10.0,15.0,88,0.00,,,0.91,WeatherCatV1.02B3,2013-04-20 03:02:00,
2013-04-19 23:07:00,36.9,33.7,29.96,North,355,5.0,16.0,88,0.00,,,0.91,WeatherCatV1.02B3,2013-04-20 03:07:00,
2013-04-19 23:12:00,36.8,33.9,29.97,North,11,9.0,22.0,89,0.00,,,0.91,WeatherCatV1.02B3,2013-04-20 03:12:00,
2013-04-19 23:17:00,36.7,33.5,29.96,NE,51,7.0,15.0,88,0.00,,,0.91,WeatherCatV1.02B3,2013-04-20 03:17:00,
2013-04-19 23:22:00,36.6,33.4,29.96,East,82,4.0,20.0,88,0.00,,,0.91,WeatherCatV1.02B3,2013-04-20 03:22:00,
2013-04-19 23:27:00,36.6,33.4,29.96,NE,40,8.0,11.0,88,0.00,,,0.91,WeatherCatV1.02B3,2013-04-20 03:27:00,
2013-04-19 23:32:00,36.4,33.2,29.96,North,355,12.0,22.0,88,0.00,,,0.91,WeatherCatV1.02B3,2013-04-20 03:32:00,
2013-04-19 23:37:00,36.3,32.8,29.95,NE,45,11.0,15.0,87,0.00,,,0.91,WeatherCatV1.02B3,2013-04-20 03:37:00,
2013-04-19 23:42:00,36.2,32.7,29.96,NE,48,6.0,21.0,87,0.00,,,0.91,WeatherCatV1.02B3,2013-04-20 03:42:00,
2013-04-19 23:47:00,36.2,32.7,29.96,WNW,302,6.0,13.0,87,0.00,,,0.91,WeatherCatV1.02B3,2013-04-20 03:47:00,
2013-04-19 23:52:00,36.1,32.3,29.97,NNW,329,9.0,12.0,86,0.00,,,0.91,WeatherCatV1.02B3,2013-04-20 03:52:00,
2013-04-19 23:57:00,36.1,32.3,29.97,North,355,14.0,17.0,86,0.00,,,0.91,WeatherCatV1.02B3,2013-04-20 03:57:00,